GFSNW_850_temp_237.txt.gz
Temp
2 2 2 2 2 2 2 3 3 3 4 5 3 4 5 4 6 6 7 7 7 7 7 7 7 7 7 7 7 7 7 7 7 10 11 12 9 6 6 7 7 11 12 14
1 2 2 2 2 2 2 4 3 3 3 5 3 3 3 5 6 7 7 7 7 7 7 5 6 7 8 7 7 5 7 5 7 9 10 11 8 7 6 6 5 7 8 12
1 1 1 1 2 1 1 3 1 2 3 4 6 5 4 3 5 6 6 6 7 7 6 7 6 7 8 7 7 4 6 6 7 6 6 8 9 10 10 7 6 9 9 11
0 1 1 1 1 1 1 1 1 4 2 3 6 6 5 5 5 6 6 6 7 6 4 4 5 7 8 8 5 7 6 4 7 8 8 8 9 9 10 10 10 8 10 11
-0 0 0 1 1 1 1 1 2 4 6 5 5 4 3 5 6 6 5 6 6 6 5 6 4 6 6 6 8 7 6 4 6 4 7 9 9 9 10 10 10 11 11 11
-1 -0 -0 0 0 0 0 1 2 3 4 6 6 6 6 5 5 5 5 6 5 5 6 5 5 5 5 6 6 6 5 4 4 4 8 7 6 8 10 10 11 11 10 12
-2 -1 -1 -0 -0 0 -0 1 3 3 3 6 5 6 5 5 6 5 5 5 5 5 4 4 4 5 5 6 7 7 5 5 3 4 5 4 9 11 10 9 10 11 12 12
-2 -1 -1 -1 -1 -1 -0 -0 1 1 2 4 6 5 5 5 5 5 5 5 4 4 4 3 3 3 2 3 5 7 7 6 3 3 5 7 9 10 10 10 10 12 12 12
-2 -2 -2 -1 -1 -1 -1 -1 -1 -1 -1 3 4 5 5 5 5 5 5 4 3 3 4 3 2 3 4 4 5 7 7 6 4 4 3 5 9 11 10 10 8 12 12 11
-3 -3 -3 -2 -2 -2 -2 -1 -1 -1 -1 1 2 4 4 4 4 4 4 4 3 3 2 2 2 4 6 5 5 5 4 3 3 4 4 6 10 10 10 6 8 9 9 9
-3 -3 -3 -3 -3 -3 -2 -1 -1 -1 -1 -0 0 1 2 3 3 3 4 2 3 2 1 3 4 3 5 5 6 6 6 5 5 3 4 5 9 9 6 8 8 8 8 8
-3 -4 -4 -4 -3 -3 -3 -2 -2 -2 -2 -1 -1 -1 -0 1 2 2 2 2 3 3 2 3 3 3 3 4 3 7 5 6 5 5 5 8 7 8 8 8 7 7 7 7
-4 -4 -4 -4 -4 -4 -4 -3 -2 -3 -3 -2 -1 -0 0 -0 -1 0 1 1 2 2 2 1 2 2 5 4 5 6 7 7 6 6 7 8 7 7 7 7 6 6 6 6
-4 -4 -4 -4 -4 -4 -4 -3 -3 -3 -2 -2 0 -0 -0 0 0 -0 -0 0 1 1 0 0 1 1 3 4 4 4 5 5 5 5 6 6 6 6 6 6 6 6 5 5
-4 -4 -4 -4 -4 -4 -4 -4 -3 -3 -2 -1 -1 -1 0 0 0 -0 0 -0 -0 -0 -1 0 1 2 2 3 4 4 5 5 4 5 6 6 6 6 6 6 6 5 4 4
-4 -4 -4 -4 -3 -3 -4 -3 -3 -3 -3 -3 -1 0 0 0 0 0 0 -0 -1 -2 -1 0 1 2 2 1 3 6 6 6 6 6 6 6 6 6 6 5 4 4 3 3
-4 -4 -4 -4 -4 -4 -3 -2 -3 -3 -3 -4 -1 1 1 0 -0 -1 -1 -2 -2 -2 -2 -1 1 2 -0 1 3 5 6 6 6 6 6 5 5 5 5 4 4 3 2 1
-5 -5 -5 -5 -4 -4 -4 -4 -3 -4 -4 -3 -1 1 2 1 -1 -2 -2 -2 -3 -3 -2 -0 1 1 1 1 4 5 6 6 6 6 6 5 4 4 4 3 2 1 1 1
-5 -5 -5 -5 -5 -4 -4 -4 -4 -4 -4 -2 -0 1 3 1 1 0 -1 -2 -1 0 -0 1 1 2 2 5 6 6 6 7 6 5 4 3 3 1 1 1 -0 -1 -1 -1
-5 -5 -4 -4 -4 -4 -4 -5 -4 -4 -4 -4 -1 1 3 2 1 1 1 -0 2 2 3 3 1 4 5 6 6 6 6 5 4 3 3 1 0 0 -0 -1 -2 -2 -2 -2
-5 -4 -4 -4 -4 -4 -3 -3 -2 -2 -2 -1 -1 0 2 2 1 2 3 2 4 3 5 4 5 6 7 7 6 6 5 4 3 2 0 -1 -1 -1 -2 -2 -2 -2 -3 -3
-4 -4 -4 -5 -4 -3 -2 -0 1 -0 1 3 1 0 1 1 0 1 2 2 4 3 5 3 5 6 7 6 6 5 4 3 2 1 -0 -1 -1 -2 -2 -3 -3 -3 -3 -2
-5 -4 -3 -2 -2 -2 -1 -0 2 2 3 3 2 1 0 -0 -0 0 2 1 3 5 3 4 7 6 6 5 4 4 2 2 1 1 -0 -1 -1 -3 -3 -3 -3 -3 -2 -2
-3 -3 -3 -2 -2 -0 2 3 4 2 3 3 2 1 1 -0 0 2 1 3 4 3 3 5 5 4 4 4 3 3 2 1 -1 -1 -1 -2 -2 -2 -2 -3 -3 -3 -2 -2
-3 -2 -2 -1 0 1 1 1 1 1 1 2 2 2 2 2 1 3 3 2 2 5 5 5 3 3 3 3 3 2 1 0 -1 -2 -2 -2 -2 -2 -2 -3 -3 -3 -2 -2
-4 -2 -1 -1 -0 -1 -1 -1 0 1 1 1 2 3 2 2 3 3 3 4 4 5 3 2 2 2 2 1 1 1 -0 -1 -1 -1 -2 -2 -2 -2 -2 -2 -3 -3 -3 -2
-3 -2 -2 -2 -1 -2 -1 -0 1 0 1 2 3 1 2 4 3 3 5 3 2 0 0 0 1 1 1 1 1 0 -0 -1 -2 -2 -2 -2 -3 -2 -2 -3 -2 -3 -3 -3

GFSNW_850_temp_243.txt.gz
Temp
2 3 3 3 3 3 3 4 -0 5 5 4 3 -1 6 7 7 8 7 7 7 7 6 5 5 5 7 8 7 4 5 5 4 4 7 7 6 4 5 1 3 4 6 9
2 2 3 3 2 3 3 4 4 4 5 1 -1 3 5 6 6 7 7 7 7 7 6 3 6 6 7 7 5 4 4 2 3 5 6 8 7 6 6 5 4 5 3 6
1 2 2 2 2 3 3 3 -2 3 4 4 4 4 3 3 6 6 7 7 7 6 6 6 3 5 7 7 6 7 5 4 4 3 4 5 5 7 8 6 3 5 5 7
1 1 2 2 2 2 2 2 -1 2 -2 -0 3 5 4 4 5 7 7 6 6 5 2 2 4 5 5 6 6 6 4 2 4 4 5 6 7 8 8 8 6 4 6 8
0 1 1 2 2 2 2 3 2 4 5 5 3 4 2 5 6 6 6 5 6 5 4 5 2 4 3 4 4 3 3 1 3 -1 5 6 5 6 7 8 8 8 8 8
-0 0 1 1 1 1 2 2 3 4 4 4 3 2 4 5 6 6 6 6 4 4 5 5 5 5 5 4 3 3 1 -1 0 -1 4 4 0 6 7 8 9 9 7 8
-1 -1 0 1 1 1 1 2 3 4 -1 1 2 6 7 7 7 5 6 6 5 5 5 5 5 5 4 4 4 5 2 3 -1 -2 2 -4 3 8 9 9 8 8 7 8
-2 -1 -1 0 1 1 1 2 2 3 -2 3 3 5 6 7 7 6 6 6 6 5 4 -1 -2 -3 -1 -2 2 4 4 2 -2 -2 -2 3 6 8 8 7 6 7 6 6
-2 -2 -1 -0 0 1 1 1 1 1 1 -1 3 4 6 2 1 2 6 6 5 4 0 -2 -4 -4 -1 1 3 6 6 3 -1 -4 0 2 6 7 7 7 4 7 7 7
-2 -2 -1 -1 -1 -0 0 1 1 1 0 2 2 1 2 5 4 0 5 5 4 4 -4 -5 -4 -2 4 2 4 3 1 -2 -3 -5 -4 2 6 7 7 3 3 6 7 7
-2 -2 -2 -1 -1 -1 -0 -0 1 0 -0 1 1 2 1 3 3 -2 4 1 2 -1 -3 -3 -3 -2 1 3 4 4 3 1 -2 -3 -5 -2 5 5 4 5 6 6 7 7
-2 -2 -2 -2 -2 -1 -1 -1 -0 -0 -0 0 0 0 1 1 1 1 2 2 3 3 -3 -3 -3 -2 -2 1 -1 5 1 3 2 2 0 4 6 5 6 7 7 7 7 7
-3 -3 -3 -2 -2 -2 -2 -1 -1 -1 -1 -1 -0 0 2 1 1 1 1 2 3 3 2 1 -3 -2 -0 -1 0 2 3 5 1 1 4 4 5 6 6 6 6 6 7 7
-2 -3 -3 -3 -2 -2 -2 -2 -2 -2 -1 -2 -1 1 1 1 1 1 1 0 1 1 1 0 -4 -2 2 -1 0 0 1 3 2 2 3 4 5 5 6 6 6 6 6 6
-2 -3 -3 -3 -3 -3 -3 -3 -2 -2 -1 -2 -1 0 1 1 1 1 1 0 1 1 0 -2 -2 1 -1 -1 -1 0 2 2 -1 1 4 4 4 5 5 5 5 4 3 3
-3 -3 -3 -3 -4 -4 -4 -4 -3 -3 -2 -2 -5 -0 1 1 1 1 1 1 1 0 0 -0 1 1 1 -4 -2 3 4 4 5 4 5 4 5 5 4 3 3 2 2 1
-3 -3 -3 -3 -4 -4 -3 -2 -2 -2 -2 -2 -3 -2 1 1 1 1 1 1 1 0 -1 -1 0 1 -0 -1 -1 3 3 3 3 4 5 4 4 3 3 2 1 1 0 -0
-3 -3 -3 -3 -4 -4 -3 -3 -2 -2 -3 -2 -5 -2 1 1 -0 -1 -0 0 -0 -1 -1 -0 -0 0 1 -3 1 2 3 4 5 4 5 4 3 3 2 1 -0 -1 -1 -2
-3 -3 -4 -4 -4 -3 -3 -3 -3 -3 -3 -2 -3 -2 -2 1 -0 -1 -1 -1 -4 -1 -5 -2 -2 -3 -2 0 2 2 3 4 4 5 4 3 2 1 0 0 -0 -2 -2 -3
-4 -4 -3 -4 -3 -3 -3 -4 -4 -3 -3 -3 -4 -0 -1 1 0 -1 -1 -1 -2 -2 -2 -0 -3 -1 1 2 3 4 4 5 3 4 3 2 1 0 -1 -1 -1 -2 -3 -3
-4 -4 -3 -3 -3 -3 -3 -4 -3 -3 -3 -3 -2 -1 -1 2 -1 -2 -0 -0 -1 -1 -1 -1 -0 0 2 4 4 4 4 4 4 3 3 2 1 -0 -1 -1 -3 -3 -3 -4
-3 -2 -4 -4 -3 -3 -3 -3 -2 -3 -2 -0 -2 -2 -1 1 2 1 1 -0 -0 1 1 0 1 0 5 4 3 3 3 3 3 2 2 1 0 -1 -2 -3 -3 -3 -3 -3
-2 -3 -4 -3 -3 -3 -2 -3 -1 -2 0 1 1 -1 -1 0 1 1 -2 -0 -0 3 -2 0 0 2 3 3 3 4 3 3 2 2 1 0 -1 -2 -3 -3 -3 -3 -3 -3
-3 -2 -4 -3 -3 -2 -1 -0 -0 3 2 2 1 1 1 1 -1 -2 -1 -0 1 -1 -0 1 -1 1 2 2 2 0 2 2 1 0 -0 -0 -1 -2 -2 -3 -3 -3 -3 -2
-2 -1 -3 -3 -0 0 1 1 2 2 2 1 1 1 1 -2 -2 -1 0 0 0 2 -1 0 -0 -0 -0 -0 0 1 1 1 1 0 -0 -0 -1 -2 -3 -3 -3 -3 -2 -2
-3 -3 -2 -1 -2 -1 -0 -0 1 0 -0 -1 -0 -0 -0 0 -0 0 0 2 2 0 -0 -1 -0 -0 0 0 0 0 1 1 0 -0 -0 -0 -1 -2 -3 -2 -2 -2 -3 -3
-4 -3 -2 -1 -0 -0 -1 0 0 1 0 -1 -1 -0 1 -0 0 1 0 -1 -1 -1 -2 -1 -1 -1 -0 0 0 0 0 -0 -0 -0 -1 -1 -1 -1 -2 -2 -2 -2 -3 -3

GFSNW_850_temp_246.txt.gz
Temp
0 2 2 2 2 3 3 3 -1 4 4 3 -1 -2 4 6 7 7 7 6 6 6 5 4 5 5 5 6 5 3 4 4 3 4 6 7 6 5 5 3 4 2 5 7
-0 1 2 2 2 3 3 3 4 3 4 -2 -4 -0 4 5 5 6 6 6 7 6 5 3 4 5 6 6 4 4 3 1 2 5 6 6 5 6 5 4 3 3 2 5
-1 1 1 2 2 2 2 3 -2 3 4 3 1 3 2 2 5 5 6 6 6 5 4 5 3 4 6 5 5 5 5 3 3 1 2 3 4 5 6 4 2 4 4 6
-1 -0 1 1 1 2 2 2 -1 2 -5 -1 2 3 3 4 4 5 6 6 5 4 1 1 3 4 4 4 5 4 2 1 3 3 4 4 5 5 5 6 5 3 6 7
-1 -1 1 1 1 1 1 2 2 2 3 4 1 2 1 3 5 5 5 4 5 5 4 4 1 3 3 2 3 3 1 -0 2 -4 3 4 4 4 5 6 7 7 7 6
-2 -1 -1 1 0 1 1 2 3 4 1 2 -0 -0 3 4 5 5 6 5 3 4 4 4 4 5 4 3 2 2 0 -2 -2 -3 3 3 1 5 6 6 6 6 4 5
-2 -1 -1 0 0 1 2 2 3 3 -3 -0 0 4 4 4 4 4 6 6 4 5 5 5 5 3 2 3 2 3 2 2 -3 -4 0 -4 3 6 7 6 5 6 6 6
-2 -2 -1 -0 0 1 1 2 2 3 -4 1 1 3 4 5 6 5 6 6 6 5 4 -2 -4 -5 -2 -2 1 3 2 -0 -4 -4 -3 2 5 5 5 5 5 5 5 5
-2 -2 -1 -1 -0 0 0 1 1 2 1 -1 3 3 4 1 -0 0 5 5 5 5 -1 -4 -5 -5 -2 0 3 4 3 2 -2 -7 -4 -2 4 5 6 6 2 6 5 5
-2 -2 -1 -1 -1 -1 0 1 0 1 1 2 2 1 1 3 1 -2 3 4 3 4 -7 -9 -6 -3 2 1 3 2 -1 -4 -4 -9 -5 1 4 5 6 1 2 6 6 6
-2 -3 -2 -1 -1 -1 -0 0 0 0 1 1 1 2 2 2 2 -2 2 1 1 -3 -5 -5 -5 -4 -0 1 3 4 2 -2 -3 -5 -7 -2 4 4 4 4 5 5 6 6
-2 -2 -2 -1 -1 -1 -1 -1 -0 -0 -0 0 1 1 2 1 1 1 2 1 1 1 -5 -5 -6 -2 -3 0 -2 2 1 1 -2 -0 -0 3 5 4 5 5 5 5 5 6
-2 -2 -2 -1 -1 -1 -1 -1 -1 -1 -1 -1 -0 1 2 1 1 1 1 1 2 2 2 -1 -5 -3 -2 -1 -1 1 2 3 -0 1 2 3 4 5 5 5 4 5 4 4
-2 -2 -2 -1 -1 -1 -2 -2 -1 -1 -1 -2 -0 0 1 1 1 1 1 1 1 1 1 -1 -6 -4 -0 -2 -1 -1 0 1 1 -0 2 3 4 4 4 4 4 4 3 3
-2 -2 -2 -2 -2 -2 -2 -2 -2 -1 -1 -3 -1 -0 1 1 1 1 1 0 0 0 -0 -3 -2 -1 -1 -4 -3 -1 1 -0 -2 -1 3 2 3 4 3 3 2 2 1 2
-2 -2 -2 -2 -2 -2 -3 -3 -3 -2 -2 -2 -6 -1 0 1 1 1 1 1 0 -0 0 -1 -0 1 0 -6 -3 0 3 3 3 2 3 3 4 3 3 2 1 1 0 -1
-2 -2 -3 -3 -3 -3 -3 -2 -2 -2 -2 -2 -4 -3 1 1 1 1 1 1 0 0 -0 -1 -1 0 0 -6 -2 1 3 3 4 3 3 3 3 2 2 1 1 -0 -1 -2
-3 -3 -3 -3 -3 -3 -3 -2 -2 -3 -2 -2 -5 -3 -0 1 -0 -0 0 -0 -0 -1 -1 -2 -2 -1 -1 -4 -0 1 1 2 3 4 4 4 3 2 1 0 -0 -0 -1 -3
-3 -3 -3 -4 -4 -4 -3 -3 -3 -3 -2 -3 -4 -3 -3 0 -1 -1 -1 -0 -3 -1 -4 -4 -3 -5 -4 -0 1 1 2 2 3 3 3 3 3 1 1 -0 -0 -1 -3 -3
-3 -3 -4 -4 -4 -3 -3 -3 -3 -3 -3 -3 -5 -1 -2 0 -1 -2 -2 -1 -4 -3 -3 -2 -5 -2 0 1 2 2 3 4 4 4 3 3 1 0 -0 -1 -2 -3 -3 -3
-4 -4 -4 -4 -3 -3 -3 -4 -4 -4 -4 -3 -3 -2 -2 0 -2 -3 -1 -2 -2 -2 -2 -2 -1 -1 -0 4 4 2 2 3 3 3 3 2 1 0 -1 -2 -3 -3 -3 -3
-3 -3 -3 -4 -3 -3 -4 -5 -4 -4 -3 -2 -3 -3 -1 1 0 -1 -1 -1 -1 -0 -2 -1 0 -1 2 4 5 4 2 3 2 2 1 1 -0 -1 -1 -3 -3 -3 -3 -3
-2 -3 -3 -3 -3 -5 -4 -4 -3 -3 -2 -1 -2 -3 -1 -0 1 -1 -2 -1 -1 -1 -2 -0 -1 0 1 1 1 1 1 1 1 1 1 0 -0 -1 -2 -3 -3 -3 -3 -3
-2 -3 -5 -3 -5 -3 -3 -1 -1 0 1 -1 -1 -1 -0 -0 -2 -2 -2 -1 -1 -3 -2 0 0 0 0 0 0 -0 -1 0 0 0 -0 -0 -0 -1 -2 -2 -2 -2 -2 -3
-2 -2 -5 -4 -2 -2 -1 0 1 1 1 -0 -0 -0 0 -1 -1 -1 -1 -0 -1 0 -2 0 -1 -1 -1 -1 -1 -0 0 0 0 -0 -0 -1 -1 -1 -1 -1 -2 -2 -2 -3
-2 -2 -3 -2 -3 -4 -0 1 -0 0 -0 0 1 -1 -1 -1 -1 -1 -1 0 1 0 -1 -2 -2 -2 -2 -1 -0 0 0 0 -0 -0 -1 -1 -1 -1 -1 -1 -1 -2 -2 -2
-4 -4 -3 -2 -1 -2 -0 0 0 0 -1 -1 -1 -0 0 -1 -1 -0 -1 -1 -2 -2 -2 -1 -1 -1 -1 -0 -0 -1 -1 -1 -1 -1 -1 -2 -2 -2 -2 -2 -2 -2 -2 -3

GFSNW_850_temp_249.txt.gz
Temp
-1 -1 -0 1 2 2 2 3 -1 3 3 2 -2 -3 1 6 6 6 6 6 5 5 5 4 4 4 5 5 4 3 3 3 2 3 5 5 5 3 4 3 3 1 4 4
-1 -1 -1 1 1 2 2 3 3 3 3 -3 -3 -2 3 5 5 5 5 5 6 6 5 3 4 4 5 5 4 3 3 1 -0 2 2 4 3 4 4 4 3 3 2 3
-1 -1 -1 -0 0 1 2 3 -2 2 3 2 0 2 2 2 5 5 5 5 6 5 4 4 3 4 5 5 4 5 4 2 2 -0 1 2 3 4 4 3 2 4 4 5
-1 -1 -1 -1 -0 1 1 2 -1 2 -3 -2 0 2 2 3 4 4 5 5 5 4 0 1 3 4 3 4 4 4 2 1 3 3 2 3 3 3 4 4 5 3 5 4
-1 -2 -1 -1 -1 -0 -0 1 1 1 1 2 1 1 1 2 4 3 4 4 4 4 3 3 1 3 2 2 3 3 1 -1 1 -3 2 3 3 3 4 4 5 5 5 4
-2 -2 -1 -1 -1 -1 -1 1 2 3 0 -0 -1 -1 2 2 4 5 6 4 2 3 3 5 5 4 4 3 2 1 -1 -3 -3 -3 2 2 0 4 4 4 4 4 3 5
-2 -2 -1 -1 -1 -1 1 2 2 2 -3 -1 0 3 3 3 3 3 5 5 3 5 5 4 4 3 1 1 1 2 1 1 -4 -5 -0 -2 3 5 5 4 4 4 5 5
-1 -2 -1 -1 -1 -0 -0 1 2 3 -4 0 1 3 3 4 5 4 4 5 6 5 4 -2 -5 -5 -2 -3 1 -0 1 -1 -6 -5 -4 1 4 4 4 4 5 5 4 4
-1 -2 -2 -1 -1 -1 -1 0 1 3 1 -1 3 2 3 -0 -1 1 4 4 4 5 -2 -4 -6 -5 -3 0 2 2 0 0 -3 -9 -4 -3 4 4 5 5 2 5 5 4
-1 -2 -2 -1 -1 -1 -1 0 0 1 2 2 2 1 1 4 1 -2 2 3 3 3 -7 -10 -7 -3 1 1 3 2 -2 -7 -5 -10 -5 0 3 4 5 0 2 5 4 4
-1 -2 -2 -1 -1 -1 -1 -0 -0 0 2 1 2 2 2 2 3 -1 1 0 1 -3 -5 -5 -6 -5 -1 1 2 3 2 -3 -5 -6 -7 -3 4 4 3 3 4 4 4 4
-1 -2 -2 -1 -1 -1 -1 -1 -0 -0 1 1 1 1 2 2 3 3 1 2 1 1 -5 -6 -6 -3 -4 0 -2 2 0 1 -2 -1 -1 2 3 3 4 4 3 4 3 3
-1 -2 -2 -2 -1 -1 -1 -1 -1 -1 -1 -0 0 1 1 1 2 2 2 1 2 2 2 -2 -6 -2 -3 -2 -1 1 2 2 -0 1 2 2 4 4 4 4 3 3 2 2
-1 -2 -2 -2 -1 -1 -1 -1 -1 -1 -0 -1 0 -0 1 1 1 1 1 2 1 1 1 -1 -7 -4 -1 -2 -1 -2 0 1 0 -1 1 2 3 4 4 3 3 3 2 2
-1 -2 -2 -2 -1 -1 -2 -2 -1 -1 1 -2 -1 -0 0 -0 0 1 1 0 1 0 -1 -2 -3 -2 -3 -5 -4 -3 0 -0 -2 -2 2 2 3 4 3 3 2 1 1 1
-2 -2 -2 -2 -2 -1 -2 -2 -2 -2 -1 -0 -6 -1 0 0 0 1 1 0 -0 -0 0 -2 -1 0 -0 -7 -3 -0 2 2 2 2 3 3 3 3 3 2 2 1 -0 -1
-2 -2 -2 -2 -1 -1 -2 -1 -1 -2 -1 -1 -4 -3 -0 0 0 0 -1 -1 -1 -0 -0 -2 -1 -0 -0 -7 -2 1 2 3 2 2 2 2 3 2 2 2 1 0 -1 -2
-2 -2 -2 -2 -2 -2 -3 -2 -2 -2 -2 -2 -6 -5 -1 -0 -0 -0 -0 -1 -1 -1 -1 -2 -2 -1 -2 -3 -1 1 1 1 2 3 3 3 2 2 2 1 -0 -1 -2 -3
-2 -2 -2 -2 -3 -3 -3 -2 -3 -3 -2 -3 -4 -3 -3 -0 -1 -1 -1 -0 -3 -2 -3 -4 -3 -4 -3 -1 0 0 1 1 3 3 3 3 2 2 1 0 -1 -2 -3 -3
-3 -3 -3 -4 -3 -3 -2 -3 -3 -3 -2 -3 -4 -2 -2 -0 -2 -3 -3 -2 -5 -4 -3 -3 -5 -3 -0 1 1 2 3 3 3 2 2 2 2 1 0 -1 -3 -4 -4 -4
-3 -4 -4 -4 -3 -2 -4 -4 -4 -4 -4 -4 -4 -2 -2 -1 -2 -4 -2 -3 -3 -2 -2 -3 -2 -1 -1 2 2 2 2 3 3 3 3 2 2 1 0 -1 -2 -3 -4 -4
-3 -3 -4 -3 -3 -4 -4 -4 -4 -5 -3 -4 -4 -3 -0 -1 0 -2 -2 -2 -2 -1 -3 -3 -1 -1 1 2 4 3 2 2 2 2 2 1 1 0 -0 -1 -2 -3 -3 -3
-3 -3 -3 -2 -4 -5 -5 -6 -4 -4 -4 -3 -3 -3 -1 -1 -0 -2 -2 -2 -1 -2 -3 -1 -1 0 0 -0 1 1 1 1 2 1 1 1 0 -0 -1 -1 -1 -2 -2 -2
-2 -4 -4 -4 -5 -4 -3 -2 -2 -2 -1 -3 -2 -2 -1 -1 -3 -3 -2 -1 -2 -3 -3 -0 0 0 -0 -0 -1 -0 -0 -1 0 0 0 -0 -1 -1 -1 -1 -2 -2 -2 -2
-2 -2 -4 -4 -3 -3 -2 -1 -0 -1 -2 -1 -1 -1 -0 -2 -2 -2 -1 -2 -2 -0 -1 -0 -1 -0 -0 -1 -1 -1 -1 -1 -1 0 -1 -1 -1 -2 -2 -2 -2 -2 -2 -2
-2 -2 -3 -4 -4 -5 -2 -1 -1 -1 -2 0 1 -2 -2 -2 -1 -2 -3 -0 -0 -1 -2 -2 -2 -2 -2 -2 -2 -1 -2 -1 -1 -1 -1 -1 -2 -2 -2 -3 -2 -2 -2 -2
-3 -4 -3 -3 -2 -2 -1 -0 -1 -1 -0 -2 -2 -2 -1 -3 -2 -1 -1 -1 -2 -3 -3 -2 -2 -2 -3 -2 -1 -1 -1 -1 -1 -1 -2 -3 -3 -3 -3 -3 -3 -2 -2 -2

GFSNW_850_temp_252.txt.gz
Temp
-1 -1 -1 -1 -0 -0 0 1 -2 2 3 1 -2 -4 1 4 6 6 6 5 5 4 4 4 4 4 4 4 4 2 2 2 1 2 4 4 4 2 3 1 3 -1 3 3
-1 -1 -0 -1 -0 -0 0 1 2 2 2 -4 -3 -2 1 4 5 5 4 4 5 5 4 2 4 4 5 5 3 3 3 0 -1 2 2 3 2 3 3 3 -0 1 -1 3
-1 -1 -1 -1 -0 -0 -0 1 -2 1 1 1 -1 1 1 2 4 5 5 5 5 4 4 3 2 4 5 5 4 4 3 2 2 -1 0 1 2 3 3 3 1 2 2 3
-0 -1 -1 -1 -1 -0 -1 -0 -1 1 -3 -3 -1 1 1 2 3 4 5 4 4 3 -0 1 2 3 3 3 4 3 1 0 2 2 2 2 2 2 2 4 4 3 4 3
-0 -0 -1 -1 -1 -0 -1 -1 -0 0 0 0 1 1 0 2 3 2 3 3 3 2 3 3 1 2 2 2 2 3 0 -1 0 -4 2 2 3 3 3 3 4 4 4 4
-0 -0 -1 -1 -1 -1 -1 -0 -0 1 -0 -1 0 -1 1 2 3 4 5 3 2 2 3 5 5 4 4 3 2 1 -1 -3 -3 -4 1 1 -1 3 3 3 3 4 4 4
-0 -1 -1 -1 -1 -1 -1 -1 1 1 -3 -1 -0 1 3 2 2 3 4 4 3 5 5 4 3 2 1 1 0 2 -0 0 -5 -5 -0 -2 2 4 5 3 4 3 4 3
-1 -1 -1 -1 -1 -1 -1 0 1 2 -5 -0 1 2 2 3 4 3 4 5 5 5 4 -2 -5 -5 -2 -4 1 -1 1 -2 -7 -5 -5 1 3 4 4 4 4 4 4 3
-1 -1 -0 -1 -1 -1 -1 -0 0 2 1 -1 3 2 3 -0 -1 0 3 4 4 4 -2 -4 -6 -4 -3 -0 2 -0 -0 -1 -3 -10 -5 -4 3 3 4 4 1 4 3 3
-1 -1 -0 -1 -1 -1 -1 -1 -0 1 2 3 2 1 1 3 1 -2 1 2 3 3 -7 -10 -7 -3 1 0 2 -1 -2 -8 -5 -11 -6 -0 2 4 4 -0 1 4 4 3
-1 -1 -1 -1 -1 -1 -1 -1 -0 0 2 2 2 2 3 2 3 -1 1 1 0 -4 -5 -5 -6 -5 -1 0 2 3 1 -4 -6 -7 -8 -3 3 4 3 3 4 4 3 3
-1 -1 -1 -1 -1 -1 -1 -1 -0 -0 1 1 2 2 2 3 4 4 2 2 0 1 -5 -7 -7 -3 -4 -0 -2 1 0 1 -2 -1 -1 2 3 4 3 3 3 3 2 2
-1 -1 -1 -1 -1 -1 -1 -1 -1 -1 -0 0 0 1 1 2 2 2 3 1 2 2 2 -2 -6 -2 -2 -2 -1 1 1 1 -0 1 1 1 3 3 4 3 3 3 2 1
-2 -1 -1 -1 -1 -1 -1 -1 -1 -0 -0 -1 0 0 1 2 2 2 2 3 2 2 2 -1 -7 -4 -1 -2 -1 -2 0 0 0 -1 0 2 3 3 3 3 3 2 2 1
-1 -1 -2 -2 -1 -1 -1 -2 -1 -0 1 -1 -1 -1 -1 0 1 1 1 1 2 1 -0 -5 -5 -3 -4 -5 -4 -4 -0 -0 -1 -1 2 2 3 3 3 3 2 1 1 0
-1 -2 -1 -2 -2 -1 -2 -2 -1 -1 -0 1 -4 -1 -1 -0 -0 -0 -0 0 1 0 0 -1 -1 -0 -1 -7 -3 -1 1 2 2 2 3 2 3 2 2 2 1 0 -0 -1
-2 -2 -2 -2 -2 -1 -2 -1 -0 -1 -1 0 -3 -3 -1 -1 -1 -1 -2 -1 -1 -0 -0 -1 -1 -1 -1 -8 -3 1 2 3 2 2 2 2 3 3 2 1 1 0 -0 -1
-2 -2 -2 -2 -2 -2 -2 -1 -1 -1 -1 -0 -4 -5 -2 -1 -1 -2 -2 -2 -1 -1 -1 -3 -2 -2 -3 -4 -1 0 2 2 2 2 2 2 2 2 1 1 1 1 -1 -3
-2 -2 -2 -2 -2 -3 -3 -2 -2 -1 -1 -3 -5 -3 -3 -1 -1 -1 -2 -2 -2 -3 -4 -4 -3 -5 -3 -1 -0 0 1 1 1 1 2 2 2 1 1 1 0 -0 -2 -4
-2 -2 -2 -3 -2 -3 -3 -3 -2 -3 -2 -2 -5 -2 -2 -1 -2 -4 -3 -3 -5 -5 -4 -3 -3 -2 -0 1 1 2 2 2 2 1 1 1 1 1 1 1 -0 -1 -3 -3
-2 -3 -4 -3 -3 -2 -3 -3 -3 -4 -4 -5 -4 -2 -2 -1 -3 -4 -3 -4 -4 -3 -3 -4 -3 -2 -1 1 1 2 1 3 2 2 2 2 2 1 1 0 -0 -1 -2 -3
-2 -2 -3 -3 -3 -4 -3 -4 -4 -4 -3 -5 -5 -3 -0 -1 0 -2 -3 -2 -3 -2 -4 -4 -2 -1 1 1 2 3 2 2 2 2 2 2 1 1 0 -0 -1 -1 -1 -2
-2 -2 -3 -3 -4 -5 -4 -5 -4 -5 -4 -4 -3 -3 -1 -1 -0 -2 -2 -1 -2 -3 -3 -2 -1 -0 -1 1 1 2 1 1 1 1 1 1 0 -0 -0 -1 -1 -1 -2 -2
-2 -3 -5 -3 -5 -4 -4 -3 -3 -2 -3 -4 -1 -3 -2 -2 -3 -3 -3 -2 -2 -3 -3 -1 -2 -0 -1 -0 0 1 0 0 0 0 -0 -1 -1 -1 -1 -1 -1 -2 -2 -2
-2 -1 -5 -5 -4 -4 -3 -1 -2 -3 -3 -2 -1 -1 -1 -2 -3 -2 -2 -2 -3 -1 -2 -2 -0 -1 -1 -1 -1 -0 -1 -1 -1 -1 -1 -1 -1 -1 -1 -1 -2 -3 -3 -3
-2 -2 -4 -4 -5 -7 -3 -2 -3 -3 -2 -1 0 -2 -3 -2 -1 -2 -3 -1 -1 -1 -2 -1 -0 -1 -1 -1 -1 -1 -1 -2 -2 -1 -1 -1 -1 -2 -3 -3 -3 -3 -3 -3
-3 -5 -3 -3 -3 -4 -2 -2 -2 -2 -1 -2 -2 -2 -1 -3 -2 -1 -2 -2 -2 -2 -2 -2 -1 -2 -2 -2 -2 -2 -2 -2 -1 -1 -2 -2 -3 -4 -3 -3 -3 -3 -3 -3

GFSNW_850_temp_258.txt.gz
Temp
0 0 -0 -0 -1 -0 -1 0 2 2 3 4 3 3 7 5 8 6 8 9 9 9 9 8 8 8 8 6 6 7 7 7 8 8 8 8 8 7 7 6 6 6 6 7
0 0 -0 -0 -0 -0 -0 1 2 1 1 3 1 3 4 6 8 8 8 8 9 9 9 6 8 8 7 6 7 7 7 6 7 8 8 9 8 8 8 7 5 6 7 6
0 0 -0 -1 -0 -0 -0 1 1 -0 -0 3 5 5 5 5 6 8 8 8 8 8 8 8 7 7 6 5 6 4 5 7 7 8 7 7 8 8 8 7 8 8 7 7
-1 0 0 -0 -1 -0 -1 -0 1 3 1 1 4 6 7 7 6 7 7 7 8 8 4 7 7 8 7 5 5 5 6 5 6 7 7 7 7 7 8 8 8 8 7 8
-1 -0 0 -0 -1 0 -1 -1 0 1 5 3 4 5 5 7 8 7 7 8 8 9 7 8 5 8 8 7 6 6 6 5 6 3 6 7 7 8 8 8 9 8 8 8
-3 -1 -1 -0 -1 0 -1 -0 0 3 3 5 4 5 6 7 7 6 8 8 8 8 8 8 7 7 7 7 7 6 5 4 4 5 6 7 5 8 9 8 8 9 8 9
-4 -3 -2 -1 -1 -1 -1 -1 1 2 3 5 5 5 5 6 7 7 6 7 7 7 5 5 5 5 5 5 6 6 5 5 4 5 6 4 8 9 9 8 8 9 8 8
-4 -4 -3 -2 -0 -1 -1 -1 1 2 4 4 5 5 6 6 6 7 6 6 7 5 6 5 2 2 2 1 5 5 6 6 3 4 6 8 7 8 8 8 8 8 8 8
-5 -4 -3 -3 -2 -1 -1 -1 0 2 2 4 5 5 5 6 6 5 5 3 3 5 6 4 4 5 6 3 3 4 5 5 5 3 5 6 9 9 8 8 6 8 7 7
-5 -4 -4 -4 -3 -2 -1 -1 -1 1 0 4 4 5 5 6 6 6 4 3 3 4 4 4 4 6 7 6 5 2 3 3 3 4 5 7 9 8 7 5 8 7 7 7
-5 -4 -4 -4 -3 -3 -1 -1 -1 0 1 2 2 3 4 5 6 5 5 4 3 4 4 5 4 5 6 6 8 5 5 4 3 4 4 5 8 7 7 8 7 6 6 6
-5 -5 -4 -4 -4 -3 -1 -1 -1 -1 1 1 2 2 3 5 6 6 4 6 5 5 5 4 4 4 5 7 6 7 6 8 6 6 7 7 7 8 7 6 6 6 5 5
-5 -5 -4 -4 -4 -3 -3 -1 -1 -1 -1 0 0 2 3 3 4 4 3 3 4 4 5 4 5 4 7 6 7 7 7 7 7 6 8 7 6 6 6 5 5 5 4 4
-5 -5 -5 -4 -4 -4 -2 -1 -1 -1 -0 1 2 1 1 3 3 4 4 4 4 3 4 2 3 5 5 7 6 7 8 6 7 7 8 5 6 6 6 5 4 4 3 2
-5 -5 -5 -5 -4 -4 -3 -2 -1 -1 1 1 0 -0 1 2 2 2 3 4 4 3 2 2 4 4 4 3 4 5 6 7 6 7 8 7 7 6 5 4 4 4 3 2
-5 -4 -5 -5 -4 -4 -2 -2 -2 -1 1 0 1 -1 -1 0 0 1 1 2 2 2 2 3 3 2 4 3 4 6 6 6 6 7 5 5 5 4 3 4 3 2 2 1
-5 -5 -4 -4 -4 -4 -2 -1 -1 -1 0 1 -1 -0 -2 -1 -0 -1 -0 0 0 1 0 2 3 3 2 2 4 6 5 4 4 4 4 4 3 4 3 3 2 2 1 1
-5 -4 -4 -4 -4 -3 -2 -0 1 -1 0 1 1 -1 -2 -2 -1 -1 -1 -0 0 0 1 0 2 1 2 2 4 5 5 4 3 3 3 4 4 3 2 2 1 1 1 0
-5 -5 -4 -5 -4 -2 -2 0 -0 -1 -0 1 1 1 -0 -2 -1 -2 -1 0 0 -1 1 2 2 3 2 4 4 4 3 3 4 3 3 3 3 3 2 1 1 2 1 -0
-5 -5 -4 -4 -2 -2 -1 -2 -2 -2 -2 -0 3 3 0 0 0 -0 -0 1 1 -0 2 0 1 3 3 3 3 3 3 3 3 3 3 2 3 2 2 1 2 1 1 -0
-4 -4 -3 -3 -2 -1 -2 -2 -1 -2 -1 0 1 2 0 0 2 1 1 1 1 2 2 2 2 3 4 3 3 3 3 2 2 2 3 3 3 2 2 1 0 0 -0 -1
-4 -3 -2 -2 -2 -3 -2 -1 -2 1 2 1 2 1 1 0 1 1 -0 2 2 2 1 0 2 4 3 2 2 3 3 2 2 2 2 2 2 2 1 0 -0 -0 -0 -1
-5 -3 -3 -2 -3 -2 -2 -1 1 1 1 1 2 1 1 -0 1 1 1 1 1 1 0 1 4 3 2 2 2 2 2 2 2 1 1 1 0 -0 -0 -0 0 -0 -1 -1
-3 -1 -2 -1 -2 -2 3 4 4 1 0 2 2 2 2 1 1 1 0 2 1 -0 1 2 4 3 2 1 1 1 1 1 2 1 0 -0 1 0 0 -0 -0 -1 -1 -2
-1 1 -1 -1 -0 0 2 1 0 0 1 1 2 2 2 2 0 2 1 -0 1 2 3 4 2 2 1 0 0 1 1 0 0 -0 1 0 -0 -0 -1 -1 -1 -2 -2 -3
-1 -1 -1 -1 -0 -1 -1 1 -0 0 1 2 3 2 2 1 2 2 1 2 2 4 4 1 0 -0 0 -0 -0 -1 -1 -1 -1 -0 -0 -0 -1 -1 -2 -2 -2 -3 -3 -2
-1 -2 -2 -1 0 -0 -1 -0 -1 0 1 2 3 1 3 3 2 3 4 3 4 2 0 -0 -1 -2 -2 -2 -2 -2 -2 -2 -1 -1 -1 -1 -1 -2 -2 -3 -2 -3 -3 -3

GFSNW_850_temp_261.txt.gz
Temp
0 0 -0 0 -0 0 -0 3 3 2 4 5 6 5 9 10 11 10 11 12 14 14 13 12 12 11 12 9 10 10 10 11 11 11 12 11 11 10 10 7 7 8 8 7
-0 0 0 -0 -0 0 1 3 4 2 2 4 3 6 8 9 11 11 11 12 13 13 12 10 12 12 9 8 10 10 10 9 10 10 11 11 11 10 10 9 8 7 7 7
-1 -1 0 -0 -0 0 1 4 2 1 1 5 7 7 8 8 9 11 11 12 11 11 11 11 10 11 8 8 9 6 7 10 10 11 10 11 10 11 11 10 9 10 10 10
-3 -2 -0 0 -0 -0 0 2 3 3 1 3 7 8 9 9 8 9 10 11 11 11 7 10 10 11 9 8 6 7 9 8 10 10 10 10 10 10 11 11 11 10 10 11
-3 -3 -2 -1 -0 -0 -0 0 2 5 7 4 6 7 7 9 10 9 10 10 11 12 10 10 9 11 10 9 9 9 9 8 8 4 10 10 9 11 11 11 11 11 11 11
-4 -3 -3 -1 -1 -1 -1 1 2 4 6 7 6 6 8 9 11 10 10 11 11 11 11 11 11 11 11 10 9 9 8 7 6 7 9 9 8 10 11 12 12 12 11 12
-4 -4 -3 -2 -1 -1 -0 -0 2 4 4 8 7 8 8 9 10 9 9 10 11 11 9 8 8 8 9 9 9 9 8 8 7 6 8 6 11 12 12 12 12 12 11 11
-5 -4 -4 -3 -3 -2 -2 -0 1 3 4 7 8 8 8 8 9 9 9 9 10 8 8 6 3 3 3 2 7 8 9 8 5 5 7 10 12 11 11 10 11 12 11 11
-5 -5 -4 -4 -4 -3 -2 -1 0 3 3 5 7 8 8 8 8 9 8 7 6 7 8 6 5 6 7 4 5 8 8 9 7 5 6 8 11 12 11 11 9 12 11 10
-5 -5 -5 -4 -4 -4 -3 -2 -1 1 2 4 6 7 8 8 9 8 6 6 6 7 6 4 6 9 10 7 6 5 6 5 5 5 6 10 13 11 10 7 10 11 10 9
-5 -5 -5 -4 -4 -4 -3 -3 -1 0 2 3 4 6 7 8 8 8 7 6 6 6 5 6 6 8 9 10 10 7 6 5 5 6 6 6 12 10 9 11 9 9 8 8
-5 -5 -5 -5 -4 -4 -4 -3 -2 -1 1 2 4 4 5 6 8 8 6 7 6 6 7 8 8 7 9 9 9 10 8 9 8 8 9 11 10 10 9 9 9 8 8 8
-5 -5 -5 -5 -4 -4 -4 -3 -2 -1 -0 0 2 3 3 4 6 6 6 7 7 7 8 8 8 7 10 9 10 10 10 10 9 9 10 10 10 10 9 8 8 8 7 7
-5 -5 -5 -5 -4 -5 -4 -3 -3 -1 -0 0 2 3 3 3 3 4 5 7 6 7 7 5 6 7 9 10 10 10 10 10 10 9 10 10 9 9 9 8 7 7 6 6
-5 -5 -5 -5 -4 -5 -4 -4 -3 -2 1 2 3 2 3 2 3 4 4 5 5 5 5 4 6 9 7 7 8 8 10 10 8 9 10 10 9 9 8 8 7 6 6 5
-5 -5 -5 -4 -4 -5 -4 -4 -2 -2 1 2 1 2 2 2 3 3 4 4 5 5 4 6 8 7 7 5 8 9 9 9 9 10 9 9 9 7 8 8 7 6 6 5
-5 -5 -4 -4 -4 -5 -4 -3 -2 -1 -0 1 0 0 1 2 3 3 4 4 4 4 4 5 7 6 5 6 7 9 8 9 8 8 8 7 7 7 6 7 6 5 4 4
-5 -5 -4 -4 -5 -5 -4 -1 -3 -1 -1 1 2 0 -0 1 1 0 1 2 2 2 3 4 6 6 5 4 7 7 8 7 7 7 7 7 6 6 6 5 5 4 3 3
-5 -5 -4 -5 -5 -4 -3 -1 -3 -1 -1 1 2 2 1 -1 -1 0 0 2 2 2 3 4 5 5 4 5 6 6 7 8 7 6 6 6 6 6 5 5 4 4 4 3
-5 -5 -4 -4 -4 -3 -2 -2 -1 -1 -1 2 4 4 1 0 1 1 2 2 4 2 4 4 3 5 6 6 6 6 7 7 6 6 6 6 5 6 5 4 4 4 4 3
-5 -4 -4 -3 -3 -2 -2 -2 -1 -2 -0 1 4 4 2 2 3 2 3 2 4 4 5 4 4 5 6 6 6 6 6 6 5 6 6 5 5 5 4 4 4 3 2 1
-4 -3 -3 -3 -3 -2 -1 -0 -1 1 1 4 5 3 3 3 2 3 2 4 4 4 4 3 4 7 7 6 6 6 5 5 5 5 5 5 5 5 4 3 2 2 1 1
-4 -4 -3 -3 -2 -1 -1 -1 0 1 5 4 3 2 2 2 3 3 4 3 3 4 2 3 6 8 6 6 5 6 5 5 5 4 4 4 4 4 3 2 1 0 1 1
-4 -3 -2 -1 -1 -1 1 3 5 5 5 4 3 3 3 3 3 3 2 4 4 2 3 5 7 7 5 4 4 5 5 4 4 4 3 3 3 2 1 1 0 0 0 -0
-4 -2 -1 -0 3 4 5 6 5 5 5 4 4 4 4 4 2 4 3 2 3 4 6 7 7 6 4 4 3 4 5 4 3 3 1 1 1 0 0 -0 0 -0 -1 -1
-3 -2 0 3 3 2 3 3 4 4 4 4 4 3 1 2 3 4 3 4 5 6 7 6 4 4 3 3 3 4 3 3 3 0 0 -0 -0 0 -0 -0 -1 -1 -2 -2
-1 -0 2 2 2 1 3 3 4 3 3 3 3 2 3 5 4 4 6 6 7 6 4 3 3 3 3 3 2 2 2 1 -0 -2 -2 -1 -1 -1 -1 -1 -2 -2 -2 -2